CAPE
534 814 1207 1506 1441 1030 1020 956 738 622 1089 965 543 467 659 750 667 766 815 825 974 1141 1194 1346 1170 771 505 631 542 366 208 139 6 0 146 464 396 0 18 41 246 274 297
271 390 1236 1064 1345 903 738 844 576 510 937 707 690 482 476 634 782 890 1024 1167 1348 1534 1408 1175 981 1171 1083 638 579 811 645 432 403 3 10 491 91 2 0 0 328 224 188
28 120 433 1050 1379 1014 950 782 483 460 671 914 787 427 540 640 733 964 1280 1608 1562 1355 1246 1091 1237 1409 1594 1093 876 804 681 677 611 326 120 353 245 21 18 285 232 139 116
0 0 236 1035 748 831 807 530 353 308 540 782 462 471 532 734 961 1275 1585 1780 1565 1460 1103 1342 1651 1624 1632 1422 1303 1074 991 878 758 559 505 299 396 365 178 167 296 160 241
0 0 655 574 528 722 629 500 344 287 408 532 546 553 658 931 1400 1817 2004 1953 1604 2177 1496 1617 1780 1859 1938 1628 1362 1049 1043 967 558 676 848 906 623 414 390 352 338 221 255
0 0 535 554 607 625 504 412 279 271 404 585 695 746 1052 1588 2001 2238 2334 1949 1772 1950 2073 2108 1828 1885 1701 1464 1104 841 812 794 967 1006 843 645 925 632 513 402 305 370 382
0 0 160 587 685 541 555 452 413 307 387 702 977 1241 1688 2054 2135 2669 2869 3132 2056 1844 1920 1837 1751 1628 1744 1474 1354 1136 907 877 1170 1160 1337 1211 1196 984 924 676 545 607 524
0 0 89 596 689 665 622 546 512 280 402 815 1534 1867 2178 2218 2243 2527 2856 3239 2654 2128 2052 1975 1827 1687 1627 1537 1286 1234 1073 1231 1401 1359 1323 908 1134 1179 1070 932 761 731 432
0 0 0 94 526 856 805 792 537 282 527 1094 1959 2100 1760 1707 1909 2073 2422 2733 2366 2119 2226 1944 1608 1767 1806 1659 1469 1328 1258 1183 1296 1340 1046 1322 1413 1154 1161 1048 865 723 908
0 0 1 359 747 909 566 914 418 317 1099 1597 1581 1469 1543 1444 1561 1677 2250 2286 2064 2059 2015 1708 1667 1587 1618 1564 1282 1439 1333 1851 1248 1159 1127 1473 1490 1382 1369 1284 1030 956 797
4 0 29 403 1025 1030 745 864 517 633 892 1251 1294 1195 2105 1242 853 1503 1839 1926 1840 1978 1704 1592 1388 1380 1595 1391 1447 2021 1386 805 994 1114 1460 1362 1582 1528 1434 1397 1378 1262 1081
23 44 27 459 1206 853 127 795 950 1096 1562 1780 1952 2034 1585 1089 867 1135 1565 1706 1907 1496 1383 1188 1081 1045 1128 538 866 1638 792 927 900 1064 1401 1723 1571 1502 1483 1531 1456 1397 1297
1 62 55 224 970 439 457 322 595 1047 1211 1172 2025 1783 1829 1012 904 795 1207 1878 1830 2084 821 835 809 581 450 331 304 344 444 475 666 966 1176 1436 1444 1457 1516 1510 1453 1402 1307
0 0 17 365 975 667 452 159 577 981 1138 857 1758 1540 1596 1000 1011 1023 1007 1632 1649 1137 739 723 795 761 477 338 177 58 17 30 173 724 1077 1162 1195 1238 1212 1236 1305 1278 1207
0 0 56 517 1232 1072 933 158 631 1002 835 906 1423 1584 1534 1093 1130 1090 1178 1339 1670 1878 966 850 861 767 488 406 248 110 6 1 6 111 580 304 980 771 765 890 899 889 930
0 33 275 902 1203 1033 924 682 762 1453 1023 911 1205 1797 1533 1389 1692 1109 1448 1310 1371 1740 1498 990 905 712 475 350 144 18 2 0 0 13 39 25 386 121 63 78 186 363 262
358 409 696 1036 1026 1186 1014 553 671 1158 1062 635 961 1682 1698 1451 1908 1951 1514 1277 1414 1961 1992 1314 1009 815 645 312 124 15 4 0 0 0 3 18 0 12 25 20 45 37 43
986 1135 1123 926 914 919 782 556 0 113 1167 619 728 859 1476 1446 1822 1930 1572 1340 1667 1676 2220 1564 1235 1133 1712 497 94 3 1 0 0 0 0 0 0 6 22 30 25 25 25
1576 1652 1651 1412 1201 1055 1278 934 120 210 1126 989 492 525 809 1478 1166 1804 1567 1537 1781 1360 1555 2270 1990 1647 2047 488 96 2 8 3 0 0 0 0 0 7 12 23 22 31 26
1808 1981 1946 1648 1677 1650 1477 1712 810 280 341 489 572 238 379 669 1629 1748 1436 1786 1540 1280 1391 2327 1776 1773 1693 1387 149 2 7 5 1 0 0 0 0 1 4 14 16 24 34
1877 2010 2140 1905 2057 2018 1897 1736 904 736 618 335 520 503 376 275 1551 2018 1362 1911 1610 1406 1565 1767 1775 1996 2135 1581 289 73 9 14 5 1 0 0 0 0 0 2 7 15 22
1744 1999 2140 2111 2462 2502 2207 2046 1226 1110 1295 1576 1608 845 695 485 1461 1882 1878 1715 1774 2021 1385 1794 1759 1872 1960 2186 1387 544 109 20 19 4 0 0 0 0 0 0 0 12 12
1854 2028 2173 2410 2481 2747 2461 2287 1900 1704 1877 2044 1998 1990 1525 914 1371 1906 1584 1901 1938 1674 1443 1450 1823 1545 1186 1618 913 1044 120 319 48 10 1 0 0 0 0 0 0 6 8
1384 1555 2243 2502 2572 2702 2796 2436 2416 1951 1805 1795 2028 1876 1157 1059 1667 1981 1945 2033 2125 1656 1366 2126 1517 1648 1658 1260 1202 1090 81 34 146 36 7 0 0 0 0 0 0 0 0
1806 1929 2158 2288 2548 2579 2758 2788 2531 2475 1963 2022 2178 2062 2050 1515 1806 2003 1878 1973 1531 1150 1835 1677 2023 2117 2080 998 555 1565 412 4 684 303 35 2 0 0 0 0 0 0 0
1922 1926 1820 2176 2527 2597 2684 2821 2859 2700 2550 2122 2266 2285 2146 1760 1635 1915 1939 2005 1814 1364 1532 1913 1975 1678 1405 1387 1156 790 1010 1327 1585 406 40 7 0 0 0 0 0 0 0
CIN
-2 -0 -2 -1 -0 -1 -0 -0 -5 -8 -0 -0 -5 -13 -5 -0 -0 -0 -0 -0 -0 -0 -3 -4 -7 -9 -8 -2 -11 -15 -13 -15 -18 -0 -1 -2 -6 -0 -93 -84 -12 -18 -8
-24 -20 -0 -0 -2 -2 -4 -4 -14 -11 -0 -1 -9 -27 -28 -23 -10 -7 -2 -2 -4 -2 -5 -7 -4 -6 -4 -5 -3 -2 -5 -8 -2 -20 -8 -0 -41 -59 -0 -0 -0 -5 -8
-49 -44 -7 -1 -1 -1 -0 -4 -24 -22 -8 -0 -8 -36 -34 -39 -35 -19 -4 -5 -3 -4 -4 -3 -8 -3 -1 -2 -1 -0 -0 -0 -0 -1 -7 -0 -7 -37 -38 -1 -7 -12 -3
-0 -0 -22 -1 -0 -0 -0 -16 -26 -34 -23 -14 -44 -46 -44 -37 -26 -10 -8 -4 -5 -5 -3 -0 -1 -0 -0 -0 -0 -0 -0 -0 -0 -4 -5 -0 -13 -0 -3 -14 -3 -1 -4
-0 -0 -6 -6 -5 -3 -8 -24 -38 -47 -40 -35 -46 -57 -48 -30 -13 -8 -6 -5 -7 -1 -2 -0 -0 -0 -0 -0 -0 -0 -0 -0 -9 -6 -0 -0 -0 -5 -2 -0 -0 -1 -1
-0 -0 -44 -22 -12 -12 -24 -35 -50 -50 -41 -34 -35 -39 -32 -16 -8 -5 -5 -9 -7 -2 -0 -0 -0 -0 -0 -0 -0 -0 -3 -9 -5 -0 -0 -2 -0 -5 -0 -1 -0 -0 -0
-0 -0 -76 -31 -18 -22 -25 -38 -36 -45 -45 -30 -23 -23 -12 -10 -10 -4 -4 -1 -5 -1 -0 -0 -0 -0 -0 -0 -0 -0 -1 -3 -0 -0 -0 -0 -0 -0 -0 -0 -1 -0 -0
-0 -0 -83 -37 -17 -15 -17 -28 -20 -47 -44 -31 -14 -14 -8 -15 -12 -8 -3 -1 -0 -0 -0 -0 -0 -0 -0 -0 -0 -0 -0 -2 -0 -0 -0 -0 -3 -0 -0 -0 -0 -0 -0
-0 -0 -0 -88 -29 -8 -9 -12 -24 -50 -39 -22 -11 -21 -32 -33 -25 -12 -8 -3 -0 -0 -0 -0 -0 -0 -0 -0 -0 -0 -4 -7 -0 -0 -0 -0 -0 -0 -0 -0 -0 -0 -0
-0 -0 -132 -53 -21 -1 -4 -6 -42 -58 -30 -23 -30 -43 -49 -40 -29 -20 -12 -5 -4 -0 -0 -0 -0 -0 -0 -0 -0 -5 -7 -4 -0 -0 -0 -0 -0 -0 -0 -0 -0 -0 -0
-121 -0 -93 -67 -8 -3 -5 -3 -33 -48 -48 -43 -12 -48 -10 -0 -0 -0 -14 -11 -3 -2 -0 -0 -0 -3 -6 -3 -7 -2 -8 -0 -3 -0 -0 -0 -0 -0 -0 -0 -0 -0 -0
-146 -126 -114 -50 -13 -19 -56 -7 -8 -0 -0 -0 -1 -0 -0 -0 -1 -0 -6 -12 -9 -20 -12 -11 -22 -25 -11 -0 -0 -8 -0 -1 -2 -0 -0 -0 -0 -0 -0 -0 -0 -0 -0
-19 -152 -119 -98 -14 -37 -32 -26 -1 -0 -0 -0 -3 -0 -2 -1 -0 -0 -0 -0 -0 -5 -0 -3 -5 -0 -0 -0 -8 -7 -6 -8 -0 -0 -0 -1 -0 -0 -0 -0 -0 -0 -0
-0 -0 -114 -55 -16 -28 -30 -79 -6 -0 -0 -0 -0 -0 -0 -0 -0 -0 -0 -0 -0 -0 -0 -0 -0 -0 -0 -0 -49 -129 -0 -0 -108 -1 -0 -1 -1 -0 -0 -0 -0 -0 -0
-0 -0 -146 -38 -4 -13 -17 -93 -5 -0 -0 -0 -0 -0 -0 -0 -0 -0 -0 -0 -0 -0 -0 -0 -0 -0 -0 -0 -7 -62 -0 -0 -0 -164 -6 -38 -0 -0 -0 -0 -0 -0 -0
-0 -111 -61 -23 -10 -18 -18 -30 -6 -0 -0 -0 -0 -0 -1 -0 -0 -0 -0 -0 -0 -0 -0 -0 -0 -0 -0 -0 -14 -112 -0 -0 -0 -0 -0 -66 -34 -114 -171 -190 -132 -74 -143
-40 -43 -17 -9 -10 -20 -22 -35 -12 -0 -0 -0 -0 -0 -1 -0 -0 -0 -0 -0 -0 -0 -0 -0 -0 -0 -0 -0 -9 -84 -0 -0 -0 -0 -0 -0 -0 -0 -0 -0 -0 -26 -0
-7 -12 -11 -10 -4 -6 -14 -34 -0 -66 -0 -0 -0 -0 -0 -4 -4 -0 -0 -0 -0 -0 -0 -0 -0 -0 -0 -0 -35 -2 -0 -0 -0 -0 -0 -0 -0 -0 -0 -0 -0 -0 -0
-0 -2 -6 -7 -4 -0 -1 -13 -51 -35 -0 -0 -3 -1 -1 -0 -0 -0 -0 -0 -0 -0 -0 -0 -0 -0 -0 -0 -25 -0 -0 -0 -0 -0 -0 -0 -0 -0 -0 -1 -2 -0 -0
-0 -0 -1 -0 -1 -0 -0 -0 -14 -48 -26 -6 -6 -12 -20 -0 -0 -0 -0 -0 -0 -0 -0 -2 -7 -0 -0 -0 -1 -0 -0 -0 -0 -0 -0 -0 -0 -0 -0 -0 -0 -0 -0
-2 -0 -0 -2 -0 -0 -0 -0 -5 -9 -7 -25 -15 -26 -37 -26 -0 -0 -0 -0 -0 -0 -0 -0 -1 -0 -0 -0 -2 -25 -0 -0 -0 -0 -0 -0 -0 -0 -0 -0 -0 -0 -0
-111 -65 -23 -12 -0 -1 -0 -0 -0 -0 -0 -0 -0 -15 -36 -34 -0 -0 -0 -0 -0 -0 -2 -0 -0 -0 -0 -0 -0 -2 -50 -6 -1 -0 -0 -0 -0 -0 -0 -0 -0 -0 -0
-134 -143 -56 -31 -18 -1 -0 -0 -0 -5 -0 -0 -0 -0 -1 -24 -0 -0 -0 -0 -0 -0 -5 -0 -0 -0 -0 -0 -1 -4 -13 -0 -125 -0 -0 -0 -0 -0 -0 -0 -0 -0 -0
-153 -137 -91 -59 -44 -7 -7 -0 -0 -0 -0 -0 -0 -0 -0 -14 -0 -0 -0 -1 -0 -0 -0 -1 -0 -0 -0 -0 -0 -3 -87 -73 -23 -103 -15 -0 -0 -0 -0 -0 -0 -0 -0
-76 -107 -106 -73 -55 -21 -21 -2 -0 -1 -0 -0 -0 -0 -0 -0 -0 -0 -0 -0 -1 -8 -0 -0 -0 -1 -0 -0 -0 -0 -1 -2 -5 -0 -63 -0 -0 -0 -0 -0 -0 -0 -0
-81 -80 -112 -114 -90 -60 -47 -15 -0 -2 -0 -0 -0 -0 -0 -0 -0 -0 -0 -0 -0 -0 -0 -0 -0 -0 -2 -0 -0 -0 -0 -0 -0 -0 -23 -0 -0 -0 -0 -0 -0 -0 -0
Wind_Speed
11 13 8 9 10 9 10 10 10 9 9 11 10 10 9 9 8 7 7 7 6 6 5 5 5 3 1 6 10 9 8 8 8 7 6 9 14 9 4 6 8 8 8
15 14 8 8 10 11 9 8 8 9 10 11 9 9 9 8 9 9 9 9 8 8 8 8 8 8 6 2 3 7 7 8 10 11 7 9 9 11 10 11 9 9 6
14 14 11 6 8 10 9 7 7 8 9 10 10 9 10 9 10 10 11 10 10 10 10 10 9 10 10 8 8 8 6 4 11 13 10 7 7 8 10 10 10 14 14
14 13 12 8 7 7 7 6 7 8 9 9 10 10 10 10 10 10 10 10 10 10 11 10 11 11 11 13 12 11 12 13 13 11 10 6 8 9 8 7 7 11 11
13 11 13 9 7 7 6 6 6 7 8 9 9 9 9 10 11 12 11 10 10 10 11 11 13 13 16 14 13 12 12 12 8 8 5 3 5 9 7 8 9 10 12
13 11 14 9 7 6 5 5 6 7 8 9 9 9 9 10 11 12 11 10 9 11 13 12 15 16 14 15 14 12 12 9 8 8 9 6 7 10 7 5 4 7 10
12 11 12 8 6 6 5 4 5 6 7 8 9 9 11 11 12 13 14 9 11 13 14 15 14 15 15 15 15 12 9 7 9 7 7 7 12 8 10 9 7 7 10
12 11 10 8 5 5 4 4 5 5 6 7 8 10 11 11 11 12 14 13 15 15 14 14 15 16 16 16 15 12 7 2 9 10 9 10 9 10 10 9 9 8 10
11 10 9 8 8 5 3 2 4 5 6 7 10 10 9 8 9 9 12 13 17 16 14 16 15 16 16 17 16 14 9 5 11 6 8 10 8 9 10 8 8 9 11
8 10 9 8 6 5 6 3 3 4 6 7 7 9 8 4 1 5 9 11 17 16 15 16 16 17 17 16 13 9 6 4 7 7 9 9 8 9 10 8 9 7 7
9 9 9 7 5 5 3 6 4 1 3 4 2 3 6 7 8 11 12 13 16 17 16 16 15 16 18 15 10 8 4 8 12 9 8 7 9 10 9 9 9 8 7
13 11 8 10 9 5 4 3 2 1 5 6 6 5 5 6 7 8 10 13 16 18 17 14 9 8 6 7 8 8 8 9 9 10 8 11 11 12 12 11 11 10 9
13 10 10 7 6 7 4 4 3 2 1 4 5 6 6 3 5 5 5 7 9 12 9 9 8 10 11 8 9 8 10 7 7 9 12 15 15 16 16 15 15 14 15
11 10 9 9 7 5 3 4 3 2 1 1 4 4 3 4 5 5 5 6 4 6 8 9 8 10 10 11 13 12 12 9 7 9 14 18 17 17 18 18 18 17 17
10 9 9 8 6 6 5 3 3 2 2 3 1 5 5 4 4 5 5 6 5 6 7 8 9 8 9 10 12 12 13 12 11 9 9 20 19 20 20 19 18 18 18
9 9 9 9 8 7 5 4 3 3 2 1 1 5 3 4 5 3 4 5 4 5 6 7 7 8 8 10 11 12 12 12 11 10 10 13 19 19 19 18 18 19 19
10 9 10 9 9 8 7 6 5 4 3 3 2 1 3 5 4 4 3 3 5 6 6 7 7 6 8 9 10 10 11 12 11 10 8 8 15 20 18 17 17 18 18
9 9 10 9 9 10 7 5 5 4 3 3 2 1 1 1 2 2 1 3 4 3 7 6 4 8 7 6 8 9 8 9 11 10 10 8 8 10 15 17 16 16 16
10 9 10 11 10 9 7 6 6 5 5 3 3 3 1 3 2 4 1 3 3 2 5 5 5 5 7 7 7 8 6 7 9 9 10 10 9 9 10 15 17 16 16
9 10 11 10 10 9 6 7 5 5 5 5 5 4 3 4 4 5 2 1 4 2 3 6 6 6 7 7 6 7 6 6 7 8 9 8 8 10 9 8 10 11 16
11 11 11 11 10 8 9 8 7 7 6 6 6 6 5 7 5 5 4 5 5 2 3 6 7 7 7 8 6 7 6 6 7 6 7 7 9 9 9 8 6 5 10
17 14 14 13 12 11 8 7 6 5 5 5 4 5 7 7 7 6 4 4 4 3 3 4 7 6 5 8 4 7 5 5 5 6 6 6 7 7 9 9 8 7 7
16 17 14 14 13 12 11 7 6 5 5 6 6 7 7 8 9 7 6 6 4 4 4 5 6 6 5 5 4 1 2 2 7 5 5 6 6 5 8 8 8 7 7
17 15 15 16 15 14 13 11 12 8 8 7 6 5 5 8 9 8 8 6 4 5 3 3 4 7 4 5 7 1 4 1 2 6 4 5 5 6 6 6 8 7 7
18 14 14 14 14 15 14 14 11 11 8 7 6 4 7 6 9 9 8 6 6 5 4 5 5 6 4 5 4 7 4 3 7 1 6 6 5 5 4 5 6 6 7
17 16 14 15 16 17 14 16 15 12 11 8 7 6 7 7 8 10 9 8 8 8 7 6 7 8 8 5 5 4 4 3 5 4 3 7 8 6 5 3 5 5 6
Wind_Direction
151 131 143 123 118 106 94 83 80 74 63 55 46 43 39 32 27 22 20 18 5 356 339 330 341 15 139 187 199 216 219 216 173 113 88 117 124 114 110 54 51 67 85
139 136 152 135 120 112 98 87 78 64 53 48 40 37 36 24 18 13 12 2 349 343 347 5 11 25 40 92 180 211 205 213 184 162 200 129 139 151 158 187 120 95 72
133 131 147 129 100 100 100 90 80 67 52 42 31 25 24 18 11 7 2 352 355 1 6 10 21 35 54 86 104 103 123 159 154 162 171 167 144 168 176 175 166 148 160
130 143 138 118 113 110 104 90 72 56 45 39 30 24 18 7 1 1 352 355 6 11 12 26 46 52 67 91 95 95 93 105 128 154 193 134 139 158 180 196 171 159 143
140 138 115 134 129 122 106 89 71 54 37 31 27 20 12 3 358 348 352 6 12 13 24 65 58 65 81 90 89 94 103 106 134 198 114 109 81 123 159 162 145 147 138
140 131 128 139 135 118 101 80 59 46 35 22 19 14 4 357 353 357 356 360 24 50 71 69 73 75 79 80 82 89 97 118 182 113 111 113 100 91 143 145 110 121 132
145 136 144 147 139 122 111 84 57 43 33 20 15 3 357 350 1 11 10 18 70 77 75 82 76 74 78 77 84 89 89 88 91 90 96 110 89 96 111 113 113 126 131
147 147 138 150 147 128 111 77 48 37 29 15 6 3 10 11 12 22 20 66 82 88 83 81 78 80 82 81 78 79 77 114 98 74 72 73 97 101 111 108 114 109 132
149 151 154 158 150 150 118 78 48 24 14 8 6 3 11 19 16 14 52 68 88 90 84 79 81 80 78 80 80 82 71 12 71 53 76 90 85 91 104 106 120 120 131
159 149 157 157 159 157 139 101 46 21 4 5 357 1 332 249 290 40 101 78 93 89 84 82 82 80 79 80 79 90 105 109 77 93 77 75 99 106 103 102 119 131 143
170 177 166 136 149 150 147 105 174 169 276 276 239 33 296 33 43 78 63 85 96 89 85 84 89 102 100 89 85 75 8 63 67 61 62 81 88 94 94 95 94 112 121
176 177 174 160 167 180 155 139 136 57 40 31 18 5 27 51 61 74 87 91 101 98 100 104 126 176 202 98 124 172 78 66 53 73 68 75 81 84 82 83 89 96 97
178 169 183 175 178 166 130 171 169 158 31 86 48 1 51 40 35 61 92 131 138 166 126 136 132 66 61 68 72 61 87 76 65 65 54 68 75 79 83 84 88 86 93
181 180 183 169 170 182 163 189 156 201 117 39 55 6 15 31 47 61 40 109 101 98 107 91 85 84 83 69 60 54 51 43 87 86 61 57 72 78 78 79 78 78 75
185 186 184 180 177 188 187 186 195 232 175 55 30 52 359 44 46 44 56 63 102 99 100 109 105 98 90 79 73 64 58 48 48 87 83 56 58 58 63 67 70 72 75
197 188 188 190 183 202 202 199 222 205 169 172 19 51 23 5 9 40 75 78 64 94 101 116 116 106 95 88 72 62 63 67 57 48 88 77 62 61 62 60 66 67 71
193 196 194 202 194 200 202 195 221 218 217 210 141 95 14 329 41 321 76 90 88 86 112 125 123 127 98 85 86 77 76 64 61 59 54 89 101 66 61 65 64 67 66
203 197 205 200 212 196 210 192 227 224 218 219 207 254 350 22 6 279 270 80 92 137 141 143 132 104 122 110 83 78 65 73 75 70 59 56 49 90 76 59 68 71 75
201 199 209 202 210 210 199 225 227 224 226 235 229 240 143 277 223 287 259 98 218 142 138 152 150 152 125 116 122 91 85 73 73 76 70 69 64 71 96 84 66 64 68
205 206 214 207 206 205 212 213 232 227 232 231 237 245 252 264 255 259 169 227 248 182 180 134 142 153 133 116 119 107 87 81 72 75 79 81 77 80 74 69 100 78 63
209 214 210 212 197 203 201 217 214 227 222 227 237 226 235 246 235 226 235 206 253 229 15 170 158 156 140 143 130 113 107 93 84 77 76 75 80 73 80 73 48 86 103
212 196 204 211 203 203 203 214 227 234 236 242 229 223 223 231 238 240 260 205 231 85 166 212 166 160 171 174 166 152 157 142 94 81 88 82 74 88 92 69 79 63 75
208 201 205 200 204 206 222 204 199 220 242 225 222 224 211 219 229 223 222 268 212 215 182 208 209 209 184 173 197 310 205 73 136 131 95 89 93 93 108 103 88 75 68
201 214 198 201 197 205 200 216 216 219 230 230 239 213 219 209 226 224 218 220 218 235 221 210 226 230 262 181 174 157 65 151 265 144 144 109 112 92 95 101 104 88 97
201 207 195 201 199 212 199 221 213 224 233 242 235 221 232 197 233 217 223 222 208 240 198 229 222 231 199 261 215 148 150 198 260 143 138 150 128 115 112 105 99 94 81
204 209 192 201 206 204 204 208 225 223 230 243 223 235 232 217 209 221 230 220 221 212 220 226 228 206 248 237 268 269 196 188 226 187 145 154 135 136 133 123 107 104 99